This is the latest recevied weather packets stored in our database for station/object DG1JLA-3. If no packets are shown the sender has not sent any weather packets the latest 10 day(s).
| Time | Temp. | Humidity | Pressure | Rain* | Wind** | Luminosity | Snow |
|---|---|---|---|---|---|---|---|
| 1777895394 | 21.67° C | 55% | 1014.9 hPa | 0 mm | - | - | - |
| 1777895094 | 21.67° C | 55% | 1014.9 hPa | 0 mm | - | - | - |
| 1777894794 | 21.67° C | 57% | 1014.9 hPa | 0 mm | - | - | - |
| 1777894494 | 21.11° C | 56% | 1014.9 hPa | 0 mm | - | - | - |
| 1777894194 | 21.11° C | 57% | 1014.9 hPa | 0 mm | - | - | - |
| 1777893894 | 21.11° C | 58% | 1015 hPa | 0 mm | - | - | - |
| 1777893594 | 20.56° C | 58% | 1015.1 hPa | 0 mm | - | - | - |
| 1777893294 | 21.11° C | 58% | 1015.1 hPa | 0 mm | - | - | - |
| 1777892994 | 21.11° C | 58% | 1015.1 hPa | 0 mm | - | - | - |
| 1777892694 | 20.56° C | 58% | 1015 hPa | 0 mm | - | - | - |
| 1777892394 | 21.11° C | 58% | 1015.1 hPa | 0 mm | - | - | - |
| 1777892094 | 21.11° C | 57% | 1015.1 hPa | 0 mm | - | - | - |
| 1777891794 | 21.67° C | 59% | 1015.2 hPa | 0 mm | - | - | - |
| 1777891494 | 21.11° C | 58% | 1015.2 hPa | 0 mm | - | - | - |
| 1777891194 | 21.11° C | 57% | 1015.3 hPa | 0 mm | - | - | - |
| 1777890894 | 21.11° C | 57% | 1015.2 hPa | 0 mm | - | - | - |
| 1777890594 | 21.11° C | 60% | 1015.3 hPa | 0 mm | - | - | - |
| 1777890295 | 21.11° C | 58% | 1015.3 hPa | 0 mm | - | - | - |
| 1777889995 | 21.11° C | 59% | 1015.4 hPa | 0 mm | - | - | - |
| 1777889695 | 20.56° C | 60% | 1015.4 hPa | 0 mm | - | - | - |
| 1777889395 | 20.56° C | 58% | 1015.4 hPa | 0 mm | - | - | - |
| 1777889095 | 21.11° C | 56% | 1015.6 hPa | 0 mm | - | - | - |
| 1777888795 | 21.11° C | 57% | 1015.6 hPa | 0 mm | - | - | - |
| 1777888495 | 20.56° C | 60% | 1015.6 hPa | 0 mm | - | - | - |
| 1777888195 | 20.56° C | 60% | 1015.6 hPa | 0 mm | - | - | - |
* Rain latest hour (hover to see other rain measurements)
** Current wind speed in m/s (hover to see current wind gust speed)